FW8647 Weather Reports


time (UTC)temp
C
wind
direction
speed
KPH
gust
KPH
rain 1hr
cm
rain 24hr
cm
rain mn
cm
humidity
%
barometer
mb
20260509101413 8 190 3.2 4.8 0.00 0.25 0.25 99 1009.3
20260509100413 -17 0.0 0.0 0.00 0.00 0.00 1009.1
20260509095413 8 195 0.0 1.6 0.00 0.25 0.25 98 1009.3
20260509094412 8 202 1.6 4.8 0.00 0.25 0.25 98 1009.4
20260509093407 8 202 3.2 12.9 0.00 0.25 0.25 98 1009.5
20260509092403 8 178 0.0 1.6 0.00 0.25 0.25 98 1009.4
20260509091403 8 228 0.0 0.0 0.00 0.25 0.25 97 1009.6
20260509090358 8 208 0.0 0.0 0.00 0.25 0.25 97 1009.6
20260509085358 8 197 0.0 0.0 0.00 0.25 0.25 97 1009.6
20260509084357 8 203 0.0 0.0 0.00 0.25 0.25 97 1009.8
20260509083357 8 227 0.0 0.0 0.00 0.25 0.25 97 1010.1
20260509082356 8 180 0.0 1.6 0.00 0.25 0.25 97 1010.1
20260509081356 8 192 3.2 9.7 0.00 0.25 0.25 96 1009.9
20260509080352 8 191 0.0 1.6 0.00 0.25 0.25 96 1009.8
20260509075352 8 182 0.0 0.0 0.00 0.25 0.25 96 1009.9
20260509074347 8 213 0.0 0.0 0.00 0.25 0.25 95 1010.2
20260509073346 8 112 1.6 4.8 0.00 0.25 0.25 95 1010.2
20260509072344 9 214 0.0 0.0 0.00 0.25 0.25 95 1010.4
20260509071344 8 152 0.0 0.0 0.00 0.25 0.25 94 1010.1
20260509070344 8 221 0.0 0.0 0.13 0.25 0.25 93 1010.2
20260509065342 8 187 1.6 4.8 0.61 0.23 0.23 94 1010.8
20260509064342 8 164 4.8 8.0 0.79 0.13 0.13 91 1011.0
20260509063341 -17 0.0 0.0 0.00 0.00 0.00 1011.1
20260509062341 8 195 0.0 0.0 0.00 0.00 0.00 84 1011.2
20260509061337 8 200 0.0 0.0 0.00 0.00 0.00 80 1011.2
20260509060336 8 200 0.0 0.0 0.00 0.00 0.00 78 1011.2
20260509055332 8 161 0.0 0.0 0.00 0.00 0.00 76 1010.8
20260509054332 8 139 0.0 0.0 0.00 0.00 0.00 75 1011.3
20260509053327 8 145 1.6 3.2 0.00 0.00 0.00 74 1011.2
20260509052323 7 136 4.8 8.0 0.00 0.00 0.00 74 1011.3
20260509051319 7 173 0.0 1.6 0.00 0.00 0.00 74 1011.7
20260509050317 7 153 1.6 3.2 0.00 0.00 0.00 74 1011.8
20260509045316 7 191 1.6 3.2 0.00 0.00 0.00 73 1011.7
20260509044311 7 161 1.6 3.2 0.00 0.00 0.00 73 1011.9
20260509043309 7 153 0.0 0.0 0.00 0.00 0.00 73 1011.9
20260509042308 7 193 0.0 0.0 0.00 0.00 0.00 73 1011.8
20260509041307 8 196 0.0 1.6 0.00 0.00 0.00 72 1012.2
20260509040302 8 144 0.0 0.0 0.00 0.00 0.00 70 1012.2
20260509035305 8 191 0.0 0.0 0.00 0.00 0.00 70 1012.4
20260509034302 8 165 1.6 3.2 0.00 0.00 0.00 68 1012.2
20260509033302 8 172 1.6 3.2 0.00 0.00 0.00 67 1012.6
20260509032306 8 184 3.2 4.8 0.00 0.00 0.00 65 1012.3
20260509031257 8 152 0.0 0.0 0.00 0.00 0.00 64 1012.4
20260509030252 8 200 1.6 3.2 0.00 0.00 0.00 65 1012.4
20260509025250 8 145 3.2 4.8 0.00 0.00 0.00 65 1012.6
20260509024248 8 145 6.4 9.7 0.00 0.00 0.00 64 1012.6
20260509023248 9 160 0.0 0.0 0.00 0.00 0.00 64 1012.8
20260509022248 9 146 0.0 0.0 0.00 0.00 0.00 64 1012.7
20260509021248 9 163 0.0 0.0 0.00 0.00 0.00 65 1012.6
20260509020243 9 139 0.0 1.6 0.00 0.00 0.00 65 1012.6
20260509015239 9 179 0.0 0.0 0.00 0.00 0.00 64 1012.6
20260509014238 10 210 0.0 0.0 0.00 0.00 0.00 63 1012.3
20260509013236 10 186 0.0 0.0 0.00 0.00 0.00 62 1012.4
20260509012235 10 148 0.0 0.0 0.00 0.00 0.00 62 1012.2
20260509011230 10 151 0.0 0.0 0.00 0.00 0.00 61 1012.3
20260509010230 10 172 0.0 0.0 0.00 0.00 0.00 60 1012.2
20260509005225 10 153 0.0 3.2 0.00 0.00 0.00 59 1012.0
20260509004223 10 188 4.8 8.0 0.00 0.00 0.00 59 1012.2
20260509003218 10 205 6.4 8.0 0.00 0.00 0.00 58 1012.0
20260509002213 10 174 11.3 12.9 0.00 0.00 0.00 58 1012.1
20260509001212 11 194 3.2 9.7 0.00 0.00 0.00 57 1012.1
20260509000207 11 162 8.0 11.3 0.00 0.00 0.00 54 1011.9
20260508235206 11 169 8.0 11.3 0.00 0.00 0.00 53 1012.0
20260508234206 11 176 14.5 16.1 0.00 0.00 0.00 52 1012.0
20260508233203 11 169 12.9 14.5 0.00 0.00 0.00 51 1011.9
20260508232202 11 203 11.3 14.5 0.00 0.00 0.00 50 1011.9
20260508231157 12 204 8.0 11.3 0.00 0.00 0.00 50 1011.8
20260508230156 12 205 19.3 24.1 0.00 0.00 0.00 51 1011.9
20260508225155 12 213 8.0 11.3 0.00 0.00 0.00 49 1011.9
20260508224151 12 149 4.8 16.1 0.00 0.00 0.00 50 1011.9
20260508223146 12 191 8.0 11.3 0.00 0.00 0.00 51 1012.0
20260508222146 12 187 16.1 24.1 0.00 0.00 0.00 51 1012.0
20260508221144 12 245 6.4 12.9 0.00 0.00 0.00 49 1012.0
20260508220143 12 161 11.3 16.1 0.00 0.00 0.00 51 1012.3
20260508215142 13 195 6.4 9.7 0.00 0.00 0.00 47 1011.8
20260508214142 13 226 6.4 8.0 0.00 0.00 0.00 49 1011.9
20260508213141 12 202 9.7 14.5 0.00 0.00 0.00 49 1012.1
20260508212140 12 200 6.4 11.3 0.00 0.00 0.00 49 1012.1
20260508211137 12 182 9.7 16.1 0.00 0.00 0.00 49 1011.8
20260508210137 12 182 9.7 11.3 0.00 0.00 0.00 46 1011.9
20260508205136 12 226 4.8 8.0 0.00 0.00 0.00 45 1011.8
20260508204134 12 160 6.4 16.1 0.00 0.00 0.00 48 1011.6
20260508203132 13 180 8.0 9.7 0.00 0.00 0.00 47 1011.7
20260508202131 12 164 4.8 8.0 0.00 0.00 0.00 43 1011.9
20260508201130 12 222 6.4 11.3 0.00 0.00 0.00 44 1012.3
20260508200129 12 185 9.7 16.1 0.00 0.00 0.00 44 1012.1
20260508195128 13 114 0.0 0.0 0.00 0.00 0.00 45 1012.2
20260508194128 12 162 8.0 11.3 0.00 0.00 0.00 48 1012.5
20260508193127 13 217 8.0 11.3 0.00 0.00 0.00 47 1012.5
20260508192127 12 189 4.8 9.7 0.00 0.00 0.00 49 1012.8
20260508191126 12 233 3.2 8.0 0.00 0.00 0.00 33 1012.9
20260508190126 13 267 4.8 8.0 0.00 0.00 0.00 33 1012.8
20260508185126 13 173 4.8 8.0 0.00 0.00 0.00 31 1012.9
20260508184126 12 202 1.6 3.2 0.00 0.00 0.00 34 1012.9
20260508183124 12 339 9.7 14.5 0.00 0.00 0.00 33 1013.0
20260508182123 12 212 11.3 16.1 0.00 0.00 0.00 34 1013.3
20260508181122 12 313 4.8 9.7 0.00 0.00 0.00 34 1013.6
20260508180121 12 161 3.2 4.8 0.00 0.00 0.00 36 1013.5
20260508175120 12 291 8.0 14.5 0.00 0.00 0.00 37 1013.7
20260508174121 11 70 0.0 0.0 0.00 0.00 0.00 36 1013.5
20260508173119 11 257 1.6 3.2 0.00 0.00 0.00 37 1013.8
20260508172119 12 215 0.0 0.0 0.00 0.00 0.00 36 1013.9
20260508171118 11 343 6.4 9.7 0.00 0.00 0.00 39 1013.8
20260508170118 11 268 4.8 8.0 0.00 0.00 0.00 38 1014.1
20260508165118 11 237 0.0 0.0 0.00 0.00 0.00 40 1014.0
20260508164117 11 220 8.0 9.7 0.00 0.00 0.00 39 1013.9
20260508163117 11 225 3.2 4.8 0.00 0.00 0.00 39 1014.4
20260508162117 11 242 6.4 9.7 0.00 0.00 0.00 41 1014.5
20260508161117 10 224 0.0 0.0 0.00 0.00 0.00 44 1014.5
20260508160112 11 259 0.0 0.0 0.00 0.00 0.00 43 1014.6
20260508155112 10 287 3.2 8.0 0.00 0.00 0.00 46 1014.9
20260508154112 10 257 0.0 1.6 0.00 0.00 0.00 45 1014.6
20260508153111 10 247 1.6 3.2 0.00 0.00 0.00 45 1014.7
20260508152109 10 199 1.6 3.2 0.00 0.00 0.00 47 1014.8
20260508151109 10 273 9.7 14.5 0.00 0.00 0.00 49 1014.6
20260508150108 9 152 6.4 9.7 0.00 0.00 0.00 51 1014.9
20260508145107 8 297 0.0 0.0 0.00 0.00 0.00 51 1015.1
20260508144102 9 309 3.2 3.2 0.00 0.00 0.00 54 1015.2
20260508143102 8 244 4.8 8.0 0.00 0.00 0.00 56 1015.0
20260508142101 8 345 0.0 0.0 0.00 0.00 0.00 57 1015.1
20260508141101 8 224 0.0 1.6 0.00 0.00 0.00 61 1014.9
20260508140101 8 187 4.8 12.9 0.00 0.00 0.00 62 1014.9
20260508135058 8 249 1.6 3.2 0.00 0.00 0.00 64 1014.8
20260508134058 8 177 0.0 0.0 0.00 0.00 0.00 65 1014.8
20260508133058 7 227 3.2 4.8 0.00 0.00 0.00 69 1014.8
20260508132058 7 232 4.8 8.0 0.00 0.00 0.00 70 1014.8
20260508131057 7 234 1.6 1.6 0.00 0.00 0.00 70 1014.8
20260508130055 7 314 6.4 11.3 0.00 0.00 0.00 72 1014.7
20260508125055 7 261 1.6 4.8 0.00 0.00 0.00 72 1014.6
20260508124055 7 199 0.0 0.0 0.00 0.00 0.00 73 1014.6
20260508123050 6 198 0.0 0.0 0.00 0.00 0.00 75 1014.8
20260508122049 6 228 1.6 1.6 0.00 0.00 0.00 75 1014.7
20260508121045 6 278 0.0 0.0 0.00 0.00 0.00 76 1014.7
20260508120041 6 252 0.0 0.0 0.00 0.00 0.00 77 1014.6
20260508115039 6 215 1.6 8.0 0.00 0.00 0.00 77 1014.5
20260508114039 5 245 4.8 9.7 0.00 0.00 0.00 77 1014.4
20260508113034 5 216 0.0 1.6 0.00 0.00 0.00 78 1014.4
20260508112033 5 218 0.0 0.0 0.00 0.00 0.00 78 1014.2
20260508111032 5 242 0.0 0.0 0.00 0.00 0.00 79 1014.2
20260508110032 5 208 0.0 0.0 0.00 0.00 0.00 79 1014.3
20260508105030 5 220 1.6 3.2 0.00 0.00 0.00 79 1014.3
20260508104030 5 191 0.0 1.6 0.00 0.00 0.00 79 1014.2
20260508103025 5 221 0.0 0.0 0.00 0.00 0.00 80 1014.3
20260508102020 5 204 0.0 1.6 0.00 0.00 0.00 81 1014.3